SCP
0 0 0 0 0 0 0 0 0 0 0 0 0 0 0 0 0 0 0 0 0 0 0 0 0 0 0 0 0 0 0 0 0 0 0 0 0 0 0 0 0 0 0 0
0 0 0 0 0 0 0 0 0 0 0 0 0 0 0 0 0 0 0 0 0 0 0 0 0 0 0 0 0 0 0 0 0 0 0 0 0 0 0 0 0 0 0 0
0 0 0 0 0 -0 0 0 0 0 0 0 0 0 0 0 0 0 0 0 0 0 0 0 0 0 0 0 0 0 0 0 0 0 0 0 0 0 0 0 0 0 0 0
0 0 0 0 0 0 0 0 0 0 0 -0 -0 0 0 0 0 0 0 0 0 0 0 0 0 0 0 0 0 0 0 0 0 0 0 0 0 0 0 0 0 0 0 0
0 0 0 0 0 0 0 0 0 0 0 0 0 0 0 0 0 0 0 0 0 0 0 0 0 0 0 0 0 0 0 0 0 0 0 0 0 0 0 0 0 0 0 -0
0 0 0 0 0 0 0 0 0 0 0 0 -0 0 0 0 -0 0 0 0 0 0 0 0 0 0 0 0 0 0 0 0 0 0 0 0 0 0 0 0 0 0 0 -0
0 0 0 0 0 0 0 0 0 0 0 -0 0 0 0 0 0 0 0 0 0 0 0 0 0 -0 0 0 0 0 0 0 0 0 0 0 0 0 0 0 0 -0 -0 0
0 0 0 0 0 0 0 0 0 0 0 -0 0 0 0 -0 0 -0 0 0 0 0 0 0 0 -0 0 0 0 0 0 0 0 0 0 0 0 -0 0 0 0 0 0 0
0 0 0 0 0 0 0 0 0 0 0 -0 0 0 0 0 0 -0 0 0 0 0 0 0 0 0 -0 0 0 0 0 0 0 0 0 0 0 -0 0 0 0 0 0 0
0 0 0 0 0 0 0 0 0 0 0 0 0 0 0 0 0 0 -0 0 0 0 0 0 0 0 0 0 0 0 -0 -0 -0 0 0 0 0 0 0 0 0 0 0 0
0 0 0 0 0 0 0 0 0 0 0 0 0 0 0 0 0 0 -0 -0 0 0 0 0 0 0 0 0 0 0 -0 -0 -0 -0 0 0 0 0 0 0 -0 0 0 0
0 0 0 0 0 0 0 0 0 0 0 0 0 0 0 0 0 0 -0 -0 0 0 0 0 0 0 0 0 0 0 -0 -0 -0 -0 -0 0 0 0 0 0 0 -0 -0 0
0 0 0 0 0 0 0 0 0 0 0 0 0 -0 -0 0 0 0 -0 0 -0 0 0 0 0 0 0 0 0 0 0 -0 -0 -0 0 0 0 0 0 0 0 0 0 0
0 0 0 0 0 0 0 0 0 0 0 0 0 -0 -0 0 0 0 -0 0 0 0 0 0 0 0 0 0 0 0 0 0 -0 0 0 0 0 0 0 0 0 0 0 0
0 0 0 0 0 0 0 0 0 0 0 0 0 0 0 0 0 0 0 0 0 0 0 0 0 0 0 0 0 0 0 0 0 -0 -0 0 0 0 0 0 0 0 0 0
0 0 0 0 0 0 0 0 0 -0 0 -0 0 0 0 0 0 0 0 0 0 0 0 0 0 0 0 0 0 0 0 0 0 -0 -0 0 0 0 0 0 0 0 0 0
0 0 0 0 0 0 0 0 0 0 0 0 0 0 0 0 0 0 0 0 0 0 0 0 0 0 0 0 0 0 0 0 0 0 0 0 0 0 0 0 0 0 0 0
0 0 0 0 0 0 0 0 0 0 0 0 0 0 0 0 0 0 0 0 0 0 0 0 0 0 0 0 0 0 0 0 0 0 0 0 0 0 0 0 0 0 0 0
0 0 0 0 0 0 0 0 0 0 0 0 0 0 0 0 0 0 0 0 0 0 0 0 0 0 0 0 0 0 0 0 0 0 0 0 0 0 0 0 0 0 0 0
0 0 0 0 0 0 0 0 0 0 0 0 0 0 0 0 0 0 0 0 0 0 0 0 0 0 0 0 0 0 0 0 0 0 0 0 0 -0 -0 -0 0 0 0 0
0 0 0 0 0 0 0 0 0 0 0 0 0 0 0 0 0 0 0 0 -0 0 0 0 0 0 0 0 0 0 0 0 0 0 0 0 0 0 -0 -0 -0 -0 -0 0
0 0 0 0 -0 -0 0 0 0 0 0 0 0 0 0 0 0 0 0 0 0 0 0 0 0 0 0 0 0 0 0 0 0 0 0 0 0 0 0 0 0 0 0 0
0 0 0 0 0 0 0 0 0 0 0 0 0 0 0 0 0 0 0 0 0 0 0 0 0 0 0 0 0 0 0 0 0 0 0 0 0 0 0 0 0 0 0 0
0 0 0 0 -0 -0 -0 -0 0 0 0 -0 -0 -0 -0 0 0 0 0 0 0 0 0 0 0 0 0 0 0 0 0 0 0 0 0 0 0 0 0 0 0 0 0 0
-0 -0 -0 -0 -0 0 -0 -0 -0 -0 -0 -0 -0 -0 -0 0 0 0 0 0 0 0 0 0 0 0 0 0 0 0 0 0 0 0 0 0 0 0 0 0 0 0 0 0
-0 -0 -0 -0 -0 -0 -0 -0 -0 -0 -0 -0 -0 0 0 0 0 0 0 0 0 0 0 0 0 0 0 0 0 0 0 0 0 0 0 0 0 0 0 0 0 0 0 0
0 0 -0 0 -0 -0 -0 -0 -0 -0 -0 -0 0 0 0 0 0 0 0 0 0 0 0 0 0 0 0 0 0 0 0 0 0 0 0 0 0 0 0 0 0 0 0 0
Wind_Speed_500mb
25 28 25 27 30 29 30 38 21 50 45 49 50 48 55 66 45 43 55 52 38 40 44 56 69 74 71 70 69 61 60 59 57 57 56 57 60 63 64 60 62 62 56 58
9 16 18 28 38 35 42 48 47 58 61 55 71 52 46 50 46 50 64 56 39 42 48 59 68 71 72 69 63 57 56 53 52 53 55 57 61 60 56 53 53 45 46 48
12 5 6 19 22 38 30 36 37 39 47 37 51 42 50 52 56 48 44 36 41 44 47 56 63 68 68 65 57 54 51 49 49 50 50 52 52 48 46 41 26 19 27 34
9 2 21 17 5 15 24 33 36 40 41 36 44 53 44 35 32 32 30 44 43 42 45 53 60 64 63 59 52 50 48 47 45 45 45 49 47 43 38 35 28 15 12 19
10 19 31 46 35 27 20 25 29 35 30 26 27 22 3 14 28 35 43 48 46 41 41 51 57 62 61 58 52 49 50 45 43 41 44 42 42 41 36 32 28 19 8 6
15 15 18 21 10 13 12 19 24 24 19 13 14 17 21 37 59 59 53 49 44 38 38 46 53 58 58 55 52 51 48 44 41 38 38 37 34 32 32 33 32 28 14 3
29 22 19 23 22 19 11 17 26 29 19 13 9 18 42 60 62 60 55 50 43 40 37 39 46 53 54 53 52 45 41 39 37 34 31 29 28 26 24 27 35 39 34 23
20 20 35 25 24 19 17 13 14 11 9 23 35 47 52 60 61 58 59 52 46 42 35 33 38 49 51 51 49 42 35 34 33 32 28 25 26 25 27 29 36 41 40 39
22 19 20 19 18 37 22 17 23 34 48 60 50 66 58 61 72 71 58 55 43 45 38 28 28 37 45 46 43 41 32 30 30 29 26 26 28 29 31 33 38 36 38 37
24 39 46 52 43 38 39 47 56 62 70 56 51 60 65 65 68 67 54 56 46 35 39 29 22 23 31 40 37 37 32 26 29 36 34 35 37 35 36 41 35 37 38 40
38 52 53 57 55 51 55 61 64 67 58 51 55 58 59 65 60 64 53 59 52 39 36 34 25 17 18 26 35 36 31 27 31 36 42 47 51 50 51 51 48 50 44 42
32 33 37 43 52 56 55 51 48 48 56 58 63 73 76 72 65 64 50 50 65 49 37 36 31 25 15 15 20 28 28 28 33 37 44 51 54 58 58 57 57 56 55 56
57 77 81 74 74 56 47 48 67 65 79 91 88 82 85 82 75 75 59 44 67 60 42 38 37 32 22 14 9 11 17 22 27 32 38 43 49 52 56 55 58 61 60 57
58 56 70 74 61 60 61 74 76 83 90 92 97 93 94 87 86 84 63 58 50 56 48 43 43 38 31 21 15 5 3 6 12 15 19 22 28 34 38 43 50 52 51 52
84 75 80 84 81 78 71 79 88 91 98 96 95 95 84 88 82 73 58 53 50 59 52 49 48 45 39 30 23 17 11 9 7 8 13 16 18 23 28 36 41 42 39 39
82 87 88 90 94 93 91 94 89 101 102 96 94 88 84 85 82 64 57 54 52 64 54 56 50 45 46 39 33 28 22 18 15 12 11 13 16 17 20 24 28 30 31 31
56 59 71 77 80 86 87 95 96 104 104 94 94 93 92 89 83 67 65 61 55 63 59 56 51 42 53 47 41 35 31 28 24 21 19 17 15 15 15 16 18 21 23 24
94 91 89 88 85 81 85 90 89 97 101 99 94 91 91 92 89 74 76 66 59 64 62 59 56 50 56 57 49 44 40 36 32 28 25 22 20 17 16 16 16 16 17 19
90 93 94 93 100 98 94 91 95 100 96 89 86 87 95 91 82 83 86 74 65 75 62 63 61 58 60 64 59 51 47 45 42 38 35 32 29 26 23 20 19 21 23 24
78 84 85 92 97 93 92 95 97 93 95 92 91 88 87 90 88 88 86 84 77 84 75 61 66 66 64 67 67 59 51 52 49 45 42 38 35 31 27 25 24 25 27 29
55 60 67 70 78 78 79 83 83 89 93 80 74 84 91 92 88 84 79 84 83 78 93 83 65 72 71 70 73 67 62 58 54 51 47 43 40 35 31 30 30 31 32 33
46 47 47 52 59 71 71 69 70 71 73 76 78 84 85 85 82 83 83 86 74 67 76 77 75 76 75 73 76 76 69 65 60 54 49 46 43 39 37 36 36 36 36 36
52 51 51 48 49 54 68 65 63 65 70 71 73 77 80 83 78 75 86 81 71 74 72 65 75 80 78 75 77 81 75 66 65 60 53 48 45 42 40 41 41 40 41 41
51 51 50 52 50 53 60 60 56 58 57 57 63 70 73 68 74 74 73 70 63 58 64 67 69 77 80 80 82 84 83 74 68 60 55 51 48 47 46 46 45 45 45 44
47 45 42 42 47 49 50 50 57 46 42 43 46 48 54 55 64 59 59 61 63 55 55 66 70 80 85 86 85 85 83 77 70 63 60 57 54 53 52 51 49 49 49 46
46 44 41 38 39 40 43 47 54 43 40 39 35 32 37 45 52 58 58 56 50 51 58 66 69 84 87 86 83 82 79 77 71 67 65 62 60 58 57 56 55 54 51 47
44 39 41 37 32 37 39 39 41 42 37 34 35 29 27 31 37 43 47 47 48 56 64 65 71 83 87 86 83 81 78 75 73 71 68 65 64 61 61 60 59 57 53 50
Wind_Direction_500mb
259 277 282 266 263 246 225 238 247 267 264 287 287 298 301 303 303 311 311 313 316 321 324 330 338 336 333 332 334 334 332 333 330 327 327 325 323 318 312 300 288 278 266 254
262 247 269 268 259 255 250 255 256 262 271 273 285 301 308 301 301 310 313 318 322 325 327 339 342 337 333 336 339 338 337 335 335 333 333 333 327 326 321 311 299 273 260 253
250 84 313 271 242 226 244 243 242 254 261 298 306 311 307 303 304 306 317 322 324 325 331 342 342 338 334 340 339 341 340 339 339 335 338 334 337 340 342 337 321 284 261 251
274 133 256 250 186 237 248 244 240 256 280 298 311 314 303 300 308 322 322 325 324 323 328 339 344 340 337 344 343 340 346 345 337 335 338 341 346 350 357 2 358 342 283 246
243 240 282 293 278 264 211 263 245 252 267 290 305 312 317 358 349 334 323 321 320 317 322 333 345 342 342 348 346 345 352 344 338 339 339 347 352 355 4 9 8 2 336 244
214 241 256 265 116 137 132 267 256 195 239 261 322 338 324 320 323 320 314 320 323 316 316 328 344 347 348 351 349 352 351 344 342 347 347 355 4 4 20 15 17 17 18 119
228 239 256 257 159 158 229 284 166 189 212 229 294 297 302 313 311 318 318 307 320 317 313 324 340 349 354 355 353 351 353 348 349 355 359 2 13 14 35 42 43 53 60 75
225 233 248 195 140 216 255 285 207 214 311 315 299 309 307 311 314 313 315 312 307 310 306 313 336 350 359 360 356 355 357 356 358 10 14 18 31 38 43 55 63 64 68 78
204 216 244 195 227 228 240 281 279 297 306 319 304 311 310 314 320 322 320 317 302 301 296 300 326 350 2 5 3 7 11 8 18 27 29 41 48 56 59 59 66 69 76 81
260 249 256 261 263 254 259 265 273 285 296 297 297 310 313 314 319 323 326 333 317 286 285 284 298 344 2 14 14 22 24 34 45 53 52 59 64 61 59 63 66 78 83 89
253 255 268 271 266 262 259 267 273 280 284 299 306 309 314 317 318 325 317 319 320 287 277 274 275 302 351 8 23 32 32 47 64 70 70 68 63 60 62 65 69 76 81 89
245 263 262 259 256 259 267 272 277 276 292 287 294 300 310 303 307 313 307 292 307 296 268 267 264 268 286 335 16 37 46 54 67 80 83 84 81 79 74 75 76 78 80 81
264 260 259 265 276 269 263 269 277 284 291 291 290 294 301 299 296 304 302 303 281 303 273 263 254 257 254 272 312 39 49 70 74 80 84 89 93 92 87 83 83 82 85 90
259 269 270 273 271 265 261 271 272 282 285 286 286 288 293 288 289 294 289 287 278 287 269 256 252 248 243 239 254 232 122 95 88 84 84 85 89 92 98 97 93 91 91 92
263 264 258 258 258 258 262 269 277 277 278 281 283 286 289 289 286 290 293 284 268 274 264 249 248 245 238 229 228 230 191 187 160 125 118 108 97 95 96 96 96 95 97 98
264 261 258 262 266 266 266 269 265 269 272 277 280 282 287 290 291 287 288 283 258 265 269 252 247 248 235 229 220 220 209 198 189 175 154 139 129 119 113 109 108 109 109 105
247 251 251 252 254 259 263 265 260 265 270 271 276 281 282 285 289 279 286 291 257 269 260 250 247 244 234 227 222 217 215 206 200 193 188 177 166 152 140 133 130 129 125 121
256 254 253 257 261 260 263 262 265 268 269 274 276 276 276 277 277 274 284 291 256 263 257 244 239 234 231 225 222 218 215 213 209 206 203 204 196 190 182 173 166 155 147 138
263 255 254 255 259 259 260 263 265 266 267 269 271 269 273 273 271 275 281 279 260 250 254 245 235 232 230 224 220 218 217 217 214 214 212 212 211 208 205 199 191 178 169 162
283 265 258 259 268 266 267 274 276 273 275 272 270 269 268 266 268 271 273 271 262 241 244 249 239 232 230 225 219 218 218 218 218 217 217 214 214 215 210 201 193 186 176 166
301 282 274 269 270 274 271 274 277 276 275 269 259 259 261 266 266 265 264 264 257 245 242 243 237 230 228 224 218 216 218 220 219 218 217 216 215 215 210 205 195 183 176 171
305 305 292 281 277 277 281 284 280 279 275 269 262 259 260 261 262 262 261 261 266 255 248 241 235 227 226 223 219 215 216 217 220 215 214 216 216 214 210 203 194 186 178 173
311 307 303 303 302 294 293 291 293 286 277 269 264 261 259 259 259 257 262 262 255 248 247 238 230 224 220 219 220 216 215 214 213 212 213 213 214 213 210 204 195 189 182 177
312 314 305 303 300 292 281 289 296 297 291 283 269 260 256 254 257 256 257 258 257 250 245 238 230 220 216 216 217 216 214 213 213 214 211 208 209 209 206 201 194 188 184 180
323 321 318 310 304 304 300 302 295 305 307 296 284 269 258 246 248 255 252 253 253 247 238 229 224 214 212 214 215 216 215 214 213 211 208 205 205 204 201 197 194 190 185 182
333 330 325 321 313 308 303 307 303 320 316 309 299 282 264 252 245 247 249 248 244 235 231 219 215 209 211 214 214 216 214 212 208 205 207 205 202 200 198 195 191 188 187 185
338 338 333 329 325 317 314 310 313 318 318 311 302 294 275 261 253 249 246 243 237 228 222 215 213 209 208 212 211 213 212 210 207 204 204 204 201 198 195 193 191 189 188 187
Wind_Speed_850mb
25 28 25 27 30 29 30 38 21 50 45 49 50 48 55 66 45 43 55 52 38 40 44 56 69 74 71 70 69 61 60 59 57 57 56 57 60 63 64 60 62 62 56 58
9 16 18 28 38 35 42 48 47 58 61 55 71 52 46 50 46 50 64 56 39 42 48 59 68 71 72 69 63 57 56 53 52 53 55 57 61 60 56 53 53 45 46 48
12 5 6 19 22 38 30 36 37 39 47 37 51 42 50 52 56 48 44 36 41 44 47 56 63 68 68 65 57 54 51 49 49 50 50 52 52 48 46 41 26 19 27 34
9 2 21 17 5 15 24 33 36 40 41 36 44 53 44 35 32 32 30 44 43 42 45 53 60 64 63 59 52 50 48 47 45 45 45 49 47 43 38 35 28 15 12 19
10 19 31 46 35 27 20 25 29 35 30 26 27 22 3 14 28 35 43 48 46 41 41 51 57 62 61 58 52 49 50 45 43 41 44 42 42 41 36 32 28 19 8 6
15 15 18 21 10 13 12 19 24 24 19 13 14 17 21 37 59 59 53 49 44 38 38 46 53 58 58 55 52 51 48 44 41 38 38 37 34 32 32 33 32 28 14 3
29 22 19 23 22 19 11 17 26 29 19 13 9 18 42 60 62 60 55 50 43 40 37 39 46 53 54 53 52 45 41 39 37 34 31 29 28 26 24 27 35 39 34 23
20 20 35 25 24 19 17 13 14 11 9 23 35 47 52 60 61 58 59 52 46 42 35 33 38 49 51 51 49 42 35 34 33 32 28 25 26 25 27 29 36 41 40 39
22 19 20 19 18 37 22 17 23 34 48 60 50 66 58 61 72 71 58 55 43 45 38 28 28 37 45 46 43 41 32 30 30 29 26 26 28 29 31 33 38 36 38 37
24 39 46 52 43 38 39 47 56 62 70 56 51 60 65 65 68 67 54 56 46 35 39 29 22 23 31 40 37 37 32 26 29 36 34 35 37 35 36 41 35 37 38 40
38 52 53 57 55 51 55 61 64 67 58 51 55 58 59 65 60 64 53 59 52 39 36 34 25 17 18 26 35 36 31 27 31 36 42 47 51 50 51 51 48 50 44 42
32 33 37 43 52 56 55 51 48 48 56 58 63 73 76 72 65 64 50 50 65 49 37 36 31 25 15 15 20 28 28 28 33 37 44 51 54 58 58 57 57 56 55 56
57 77 81 74 74 56 47 48 67 65 79 91 88 82 85 82 75 75 59 44 67 60 42 38 37 32 22 14 9 11 17 22 27 32 38 43 49 52 56 55 58 61 60 57
58 56 70 74 61 60 61 74 76 83 90 92 97 93 94 87 86 84 63 58 50 56 48 43 43 38 31 21 15 5 3 6 12 15 19 22 28 34 38 43 50 52 51 52
84 75 80 84 81 78 71 79 88 91 98 96 95 95 84 88 82 73 58 53 50 59 52 49 48 45 39 30 23 17 11 9 7 8 13 16 18 23 28 36 41 42 39 39
82 87 88 90 94 93 91 94 89 101 102 96 94 88 84 85 82 64 57 54 52 64 54 56 50 45 46 39 33 28 22 18 15 12 11 13 16 17 20 24 28 30 31 31
56 59 71 77 80 86 87 95 96 104 104 94 94 93 92 89 83 67 65 61 55 63 59 56 51 42 53 47 41 35 31 28 24 21 19 17 15 15 15 16 18 21 23 24
94 91 89 88 85 81 85 90 89 97 101 99 94 91 91 92 89 74 76 66 59 64 62 59 56 50 56 57 49 44 40 36 32 28 25 22 20 17 16 16 16 16 17 19
90 93 94 93 100 98 94 91 95 100 96 89 86 87 95 91 82 83 86 74 65 75 62 63 61 58 60 64 59 51 47 45 42 38 35 32 29 26 23 20 19 21 23 24
78 84 85 92 97 93 92 95 97 93 95 92 91 88 87 90 88 88 86 84 77 84 75 61 66 66 64 67 67 59 51 52 49 45 42 38 35 31 27 25 24 25 27 29
55 60 67 70 78 78 79 83 83 89 93 80 74 84 91 92 88 84 79 84 83 78 93 83 65 72 71 70 73 67 62 58 54 51 47 43 40 35 31 30 30 31 32 33
46 47 47 52 59 71 71 69 70 71 73 76 78 84 85 85 82 83 83 86 74 67 76 77 75 76 75 73 76 76 69 65 60 54 49 46 43 39 37 36 36 36 36 36
52 51 51 48 49 54 68 65 63 65 70 71 73 77 80 83 78 75 86 81 71 74 72 65 75 80 78 75 77 81 75 66 65 60 53 48 45 42 40 41 41 40 41 41
51 51 50 52 50 53 60 60 56 58 57 57 63 70 73 68 74 74 73 70 63 58 64 67 69 77 80 80 82 84 83 74 68 60 55 51 48 47 46 46 45 45 45 44
47 45 42 42 47 49 50 50 57 46 42 43 46 48 54 55 64 59 59 61 63 55 55 66 70 80 85 86 85 85 83 77 70 63 60 57 54 53 52 51 49 49 49 46
46 44 41 38 39 40 43 47 54 43 40 39 35 32 37 45 52 58 58 56 50 51 58 66 69 84 87 86 83 82 79 77 71 67 65 62 60 58 57 56 55 54 51 47
44 39 41 37 32 37 39 39 41 42 37 34 35 29 27 31 37 43 47 47 48 56 64 65 71 83 87 86 83 81 78 75 73 71 68 65 64 61 61 60 59 57 53 50
Wind_Direction_850mb
259 277 282 266 263 246 225 238 247 267 264 287 287 298 301 303 303 311 311 313 316 321 324 330 338 336 333 332 334 334 332 333 330 327 327 325 323 318 312 300 288 278 266 254
262 247 269 268 259 255 250 255 256 262 271 273 285 301 308 301 301 310 313 318 322 325 327 339 342 337 333 336 339 338 337 335 335 333 333 333 327 326 321 311 299 273 260 253
250 84 313 271 242 226 244 243 242 254 261 298 306 311 307 303 304 306 317 322 324 325 331 342 342 338 334 340 339 341 340 339 339 335 338 334 337 340 342 337 321 284 261 251
274 133 256 250 186 237 248 244 240 256 280 298 311 314 303 300 308 322 322 325 324 323 328 339 344 340 337 344 343 340 346 345 337 335 338 341 346 350 357 2 358 342 283 246
243 240 282 293 278 264 211 263 245 252 267 290 305 312 317 358 349 334 323 321 320 317 322 333 345 342 342 348 346 345 352 344 338 339 339 347 352 355 4 9 8 2 336 244
214 241 256 265 116 137 132 267 256 195 239 261 322 338 324 320 323 320 314 320 323 316 316 328 344 347 348 351 349 352 351 344 342 347 347 355 4 4 20 15 17 17 18 119
228 239 256 257 159 158 229 284 166 189 212 229 294 297 302 313 311 318 318 307 320 317 313 324 340 349 354 355 353 351 353 348 349 355 359 2 13 14 35 42 43 53 60 75
225 233 248 195 140 216 255 285 207 214 311 315 299 309 307 311 314 313 315 312 307 310 306 313 336 350 359 360 356 355 357 356 358 10 14 18 31 38 43 55 63 64 68 78
204 216 244 195 227 228 240 281 279 297 306 319 304 311 310 314 320 322 320 317 302 301 296 300 326 350 2 5 3 7 11 8 18 27 29 41 48 56 59 59 66 69 76 81
260 249 256 261 263 254 259 265 273 285 296 297 297 310 313 314 319 323 326 333 317 286 285 284 298 344 2 14 14 22 24 34 45 53 52 59 64 61 59 63 66 78 83 89
253 255 268 271 266 262 259 267 273 280 284 299 306 309 314 317 318 325 317 319 320 287 277 274 275 302 351 8 23 32 32 47 64 70 70 68 63 60 62 65 69 76 81 89
245 263 262 259 256 259 267 272 277 276 292 287 294 300 310 303 307 313 307 292 307 296 268 267 264 268 286 335 16 37 46 54 67 80 83 84 81 79 74 75 76 78 80 81
264 260 259 265 276 269 263 269 277 284 291 291 290 294 301 299 296 304 302 303 281 303 273 263 254 257 254 272 312 39 49 70 74 80 84 89 93 92 87 83 83 82 85 90
259 269 270 273 271 265 261 271 272 282 285 286 286 288 293 288 289 294 289 287 278 287 269 256 252 248 243 239 254 232 122 95 88 84 84 85 89 92 98 97 93 91 91 92
263 264 258 258 258 258 262 269 277 277 278 281 283 286 289 289 286 290 293 284 268 274 264 249 248 245 238 229 228 230 191 187 160 125 118 108 97 95 96 96 96 95 97 98
264 261 258 262 266 266 266 269 265 269 272 277 280 282 287 290 291 287 288 283 258 265 269 252 247 248 235 229 220 220 209 198 189 175 154 139 129 119 113 109 108 109 109 105
247 251 251 252 254 259 263 265 260 265 270 271 276 281 282 285 289 279 286 291 257 269 260 250 247 244 234 227 222 217 215 206 200 193 188 177 166 152 140 133 130 129 125 121
256 254 253 257 261 260 263 262 265 268 269 274 276 276 276 277 277 274 284 291 256 263 257 244 239 234 231 225 222 218 215 213 209 206 203 204 196 190 182 173 166 155 147 138
263 255 254 255 259 259 260 263 265 266 267 269 271 269 273 273 271 275 281 279 260 250 254 245 235 232 230 224 220 218 217 217 214 214 212 212 211 208 205 199 191 178 169 162
283 265 258 259 268 266 267 274 276 273 275 272 270 269 268 266 268 271 273 271 262 241 244 249 239 232 230 225 219 218 218 218 218 217 217 214 214 215 210 201 193 186 176 166
301 282 274 269 270 274 271 274 277 276 275 269 259 259 261 266 266 265 264 264 257 245 242 243 237 230 228 224 218 216 218 220 219 218 217 216 215 215 210 205 195 183 176 171
305 305 292 281 277 277 281 284 280 279 275 269 262 259 260 261 262 262 261 261 266 255 248 241 235 227 226 223 219 215 216 217 220 215 214 216 216 214 210 203 194 186 178 173
311 307 303 303 302 294 293 291 293 286 277 269 264 261 259 259 259 257 262 262 255 248 247 238 230 224 220 219 220 216 215 214 213 212 213 213 214 213 210 204 195 189 182 177
312 314 305 303 300 292 281 289 296 297 291 283 269 260 256 254 257 256 257 258 257 250 245 238 230 220 216 216 217 216 214 213 213 214 211 208 209 209 206 201 194 188 184 180
323 321 318 310 304 304 300 302 295 305 307 296 284 269 258 246 248 255 252 253 253 247 238 229 224 214 212 214 215 216 215 214 213 211 208 205 205 204 201 197 194 190 185 182
333 330 325 321 313 308 303 307 303 320 316 309 299 282 264 252 245 247 249 248 244 235 231 219 215 209 211 214 214 216 214 212 208 205 207 205 202 200 198 195 191 188 187 185
338 338 333 329 325 317 314 310 313 318 318 311 302 294 275 261 253 249 246 243 237 228 222 215 213 209 208 212 211 213 212 210 207 204 204 204 201 198 195 193 191 189 188 187